EW3511 Weather Reports


Display with metric or nautical units.
time (UTC)temp
F
wind
direction
speed
MPH
gust
MPH
rain 1hr
in
rain 24hr
in
rain mn
in
humidity
%
barometer
mb
20260902130555 78 117 1.0 3.0 0.00 0.00 0.00 56 1020.1
20260902125556 76 95 2.0 6.0 0.00 0.00 0.00 58 1020.2
20260902124556 76 66 2.0 6.0 0.00 0.00 0.00 60 1020.4
20260902123616 76 48 1.0 5.0 0.00 0.00 0.00 60 1020.5
20260902122557 76 75 2.0 5.0 0.00 0.00 0.00 59 1020.5
20260902121557 75 60 2.0 3.0 0.00 0.00 0.00 59 1020.6
20260902120559 74 54 1.0 5.0 0.00 0.00 0.00 60 1020.6
20260902115558 76 45 1.0 3.0 0.00 0.00 0.00 58 1020.6
20260902114558 75 140 1.0 5.0 0.00 0.00 0.00 59 1020.7
20260902113559 74 42 1.0 2.0 0.00 0.00 0.00 60 1020.7
20260902110557 74 47 1.0 3.0 0.00 0.00 0.00 63 1020.9
20260902105557 73 56 1.0 3.0 0.00 0.00 0.00 65 1021.0
20260902104558 73 70 1.0 2.0 0.00 0.00 0.00 66 1021.2
20260902103557 73 69 1.0 2.0 0.00 0.00 0.00 65 1021.3
20260902102559 73 54 1.0 2.0 0.00 0.00 0.00 65 1021.2
20260902101559 73 71 1.0 3.0 0.00 0.00 0.00 66 1021.4
20260902100559 73 127 0.0 2.0 0.00 0.00 0.00 63 1021.4
20260902095620 73 120 1.0 3.0 0.00 0.00 0.00 64 1021.5
20260902094615 73 93 2.0 3.0 0.00 0.00 0.00 66 1021.5
20260902093600 74 112 2.0 5.0 0.00 0.00 0.00 63 1021.5
20260902092600 73 102 1.0 3.0 0.00 0.00 0.00 66 1021.4
20260902091622 72 120 2.0 5.0 0.00 0.00 0.00 67 1021.6
20260902090601 71 99 2.0 3.0 0.00 0.00 0.00 68 1021.5
20260902085602 71 78 1.0 5.0 0.00 0.00 0.00 69 1021.7
20260902084602 70 125 2.0 3.0 0.00 0.00 0.00 70 1021.7
20260902083604 71 110 2.0 3.0 0.00 0.00 0.00 70 1021.6
20260902082605 72 101 1.0 2.0 0.00 0.00 0.00 68 1021.6
20260902081603 71 58 1.0 2.0 0.00 0.00 0.00 69 1021.6
20260902080604 69 84 1.0 3.0 0.00 0.00 0.00 71 1021.6
20260902075604 70 29 1.0 2.0 0.00 0.00 0.00 71 1021.6
20260902074532 68 68 1.0 2.0 0.00 0.00 0.00 71 1021.5
20260902073534 68 90 1.0 2.0 0.00 0.00 0.00 71 1021.4
20260902072533 68 94 1.0 2.0 0.00 0.00 0.00 72 1021.6
20260902071535 67 105 0.0 2.0 0.00 0.00 0.00 72 1021.6
20260902070534 66 109 1.0 2.0 0.00 0.00 0.00 74 1021.6
20260902065535 65 98 1.0 1.0 0.00 0.00 0.00 77 1021.5
20260902064615 65 91 0.0 1.0 0.00 0.00 0.00 77 1021.3
20260902063535 64 91 0.0 1.0 0.00 0.00 0.00 79 1021.4
20260902062536 64 90 0.0 1.0 0.00 0.00 0.00 78 1021.5
20260902060537 61 88 0.0 1.0 0.00 0.00 0.00 85 1021.3
20260902055637 58 0.0 0.0 0.00 0.00 0.00 92 1021.4
20260902054538 55 0.0 0.0 0.00 0.00 0.00 99 1021.3
20260902053539 54 0.0 0.0 0.00 0.00 0.00 99 1021.3
20260902052542 53 0.0 0.0 0.00 0.00 0.00 99 1021.3
20260902051539 52 0.0 0.0 0.00 0.00 0.00 99 1021.2
20260902050540 51 0.0 0.0 0.00 0.00 0.00 99 1021.2
20260902045600 51 0.0 0.0 0.00 0.00 0.00 99 1021.0
20260902044540 50 0.0 0.0 0.00 0.00 0.00 99 1021.0
20260902043540 50 0.0 0.0 0.00 0.00 0.00 99 1021.0
20260902042602 51 0.0 0.0 0.00 0.00 0.00 99 1020.9
20260902041541 51 0.0 0.0 0.00 0.00 0.00 99 1020.9
20260902040542 50 0.0 0.0 0.00 0.00 0.00 99 1021.0
20260902035542 51 0.0 0.0 0.00 0.00 0.00 99 1021.0
20260902034542 51 0.0 0.0 0.00 0.00 0.00 99 1021.1
20260902033543 51 0.0 0.0 0.00 0.00 0.00 99 1021.0
20260902032543 51 0.0 0.0 0.00 0.00 0.00 99 1021.0
20260902031604 51 0.0 0.0 0.00 0.00 0.00 99 1021.0
20260902030544 52 0.0 0.0 0.00 0.00 0.00 99 1021.0
20260902025625 52 0.0 0.0 0.00 0.00 0.00 99 1021.2
20260902024545 53 0.0 0.0 0.00 0.00 0.00 99 1021.3
20260902023546 53 0.0 0.0 0.00 0.00 0.00 99 1021.4
20260902022547 53 0.0 0.0 0.00 0.00 0.00 99 1021.3
20260902021548 53 0.0 0.0 0.00 0.00 0.00 99 1021.2
20260902020607 53 0.0 0.0 0.00 0.00 0.00 99 1021.2
20260902015548 53 0.0 0.0 0.00 0.00 0.00 99 1021.3
20260902014547 53 0.0 0.0 0.00 0.00 0.00 99 1021.2
20260902013548 54 0.0 0.0 0.00 0.00 0.00 98 1021.4
20260902012551 54 0.0 0.0 0.00 0.00 0.00 98 1021.3
20260902011549 54 0.0 0.0 0.00 0.00 0.00 99 1021.5
20260902010549 54 60 0.0 1.0 0.00 0.00 0.00 99 1021.5
20260902005630 54 0.0 0.0 0.00 0.00 0.00 99 1021.5
20260902004550 54 0.0 0.0 0.00 0.00 0.00 99 1021.6
20260902003551 54 0.0 0.0 0.00 0.00 0.00 99 1021.5
20260902002552 54 0.0 0.0 0.00 0.00 0.00 99 1021.4
20260902001551 54 0.0 0.0 0.00 0.00 0.00 98 1021.5
20260902000552 55 0.0 0.0 0.00 0.00 0.00 98 1021.7
20260901235552 55 0.0 0.0 0.00 0.00 0.00 99 1021.7
20260901234553 55 0.0 0.0 0.00 0.00 0.00 99 1021.7
20260901233553 55 0.0 0.0 0.00 0.00 0.00 98 1021.8
20260901232554 55 0.0 0.0 0.00 0.00 0.00 98 1021.7
20260901231554 55 0.0 0.0 0.00 0.00 0.00 97 1021.7
20260901230554 55 0.0 0.0 0.00 0.00 0.00 97 1021.6
20260901225614 56 0.0 0.0 0.00 0.00 0.00 97 1021.6
20260901224556 56 0.0 0.0 0.00 0.00 0.00 97 1021.7
20260901223556 56 0.0 0.0 0.00 0.00 0.00 96 1021.6
20260901222616 56 0.0 0.0 0.00 0.00 0.00 95 1021.8
20260901221556 57 0.0 0.0 0.00 0.00 0.00 95 1021.7
20260901220557 58 0.0 0.0 0.00 0.00 0.00 93 1021.9
20260901215558 58 0.0 0.0 0.00 0.00 0.00 93 1021.8
20260901214558 58 0.0 0.0 0.00 0.00 0.00 92 1021.7
20260901213558 58 0.0 0.0 0.00 0.00 0.00 92 1021.8
20260901212558 59 114 0.0 1.0 0.00 0.00 0.00 92 1021.6
20260901211559 58 0.0 0.0 0.00 0.00 0.00 92 1021.6
20260901210619 58 0.0 0.0 0.00 0.00 0.00 92 1021.7
20260901205600 59 0.0 0.0 0.00 0.00 0.00 91 1021.6
20260901204641 59 0.0 0.0 0.00 0.00 0.00 90 1021.7
20260901203533 59 0.0 0.0 0.00 0.00 0.00 90 1021.5
20260901202533 60 0.0 0.0 0.00 0.00 0.00 89 1021.4
20260901201534 60 0.0 0.0 0.00 0.00 0.00 88 1021.3
20260901200534 60 0.0 0.0 0.00 0.00 0.00 88 1021.4
20260901195554 61 0.0 0.0 0.00 0.00 0.00 87 1021.4
20260901194534 61 0.0 0.0 0.00 0.00 0.00 87 1021.3
20260901193536 61 0.0 0.0 0.00 0.00 0.00 85 1021.1
20260901192536 61 0.0 0.0 0.00 0.00 0.00 85 1021.1
20260901191536 62 0.0 0.0 0.00 0.00 0.00 83 1021.1
20260901190536 63 0.0 0.0 0.00 0.00 0.00 79 1021.1
20260901185557 64 0.0 0.0 0.00 0.00 0.00 77 1020.9
20260901184537 65 68 0.0 1.0 0.00 0.00 0.00 74 1020.8
20260901183538 65 66 0.0 1.0 0.00 0.00 0.00 75 1020.7
20260901182558 66 55 1.0 2.0 0.00 0.00 0.00 73 1020.7
20260901181558 65 64 0.0 1.0 0.00 0.00 0.00 76 1020.6
20260901180539 66 0.0 0.0 0.00 0.00 0.00 72 1020.5
20260901175540 67 0.0 0.0 0.00 0.00 0.00 71 1020.4
20260901174549 68 0.0 0.0 0.00 0.00 0.00 68 1020.3
20260901173540 69 0.0 0.0 0.00 0.00 0.00 65 1020.2
20260901172540 70 0.0 1.0 0.00 0.00 0.00 64 1020.2
20260901171557 71 52 1.0 2.0 0.00 0.00 0.00 63 1020.2
20260901170542 71 51 1.0 2.0 0.00 0.00 0.00 62 1020.1
20260901165602 72 50 1.0 3.0 0.00 0.00 0.00 62 1020.3
20260901164622 72 31 1.0 3.0 0.00 0.00 0.00 60 1020.2
20260901163543 73 68 0.0 2.0 0.00 0.00 0.00 57 1020.2
20260901162543 73 62 0.0 2.0 0.00 0.00 0.00 56 1020.2
20260901161543 74 41 1.0 3.0 0.00 0.00 0.00 53 1020.1
20260901160544 76 48 1.0 3.0 0.00 0.00 0.00 51 1020.0
20260901155544 75 49 1.0 6.0 0.00 0.00 0.00 51 1019.9
20260901154545 75 43 2.0 5.0 0.00 0.00 0.00 52 1020.0
20260901153545 75 14 2.0 5.0 0.00 0.00 0.00 52 1020.1
20260901152545 76 338 4.0 8.0 0.00 0.00 0.00 51 1020.1
20260901151546 76 338 2.0 9.0 0.00 0.00 0.00 49 1020.1
20260901150627 77 57 1.0 7.0 0.00 0.00 0.00 48 1020.0
20260901145546 77 41 2.0 7.0 0.00 0.00 0.00 49 1020.0
20260901144547 78 58 1.0 3.0 0.00 0.00 0.00 45 1020.1
20260901143547 76 58 1.0 6.0 0.00 0.00 0.00 47 1020.1
20260901142608 77 52 2.0 5.0 0.00 0.00 0.00 49 1020.2
20260901141548 76 5 3.0 9.0 0.00 0.00 0.00 50 1020.2
20260901140549 76 26 2.0 7.0 0.00 0.00 0.00 50 1020.3
20260901135609 74 35 2.0 6.0 0.00 0.00 0.00 52 1020.4
20260901134610 75 115 1.0 3.0 0.00 0.00 0.00 50 1020.4
20260901133550 75 143 1.0 3.0 0.00 0.00 0.00 49 1020.5
20260901132550 76 88 2.0 6.0 0.00 0.00 0.00 49 1020.5
20260901131611 77 141 2.0 5.0 0.00 0.00 0.00 48 1020.7